Port Heiden, AK

10:02 AM AKDT on July 24, 2017 (GMT -0800)
Port Heiden

Weather History for PAPH - June, 2013

Change the Weather History Date:

Wednesday, June 19, 2013

  Actual Average Record
Temperature  
Mean Temperature 50 °F -  
Max Temperature 62 °F 52 °F 64 °F (2015)
Min Temperature 39 °F 41 °F 23 °F (2007)
Degree Days  
Heating Degree Days 14    
Moisture  
Dew Point 40 °F    
Average Humidity 63    
Maximum Humidity 87    
Minimum Humidity 36    
Precipitation  
Precipitation 0.00 in - - ()
Sea Level Pressure  
Sea Level Pressure 29.75 in    
Wind  
Wind Speed 10 mph (SE)    
Max Wind Speed 29 mph    
Max Gust Speed 38 mph    
Visibility 8 miles    
Events      
Averages and records for this station are not official NWS values.
T = Trace of Precipitation, MM = Missing Value Source: NWS Daily Summary

Daily Weather History Graph

Daily Weather History Graph

Search for Another Location

Airport or City:

Trip Planner

Search our weather history database for the weather conditions in past years. The results will help you decide how hot, cold, wet, or windy it might be!

Date:

Astronomy

Jun. 19, 2013 Rise Set
Actual Time 5:39 AM AKDT 11:32 PM AKDT
Civil Twilight 4:31 AM AKDT 12:40 AM AKDT
Nautical Twilight 3:08 AM AKDT 2:03 AM AKDT
Astronomical Twilight Sun does not set Sun does not set
Moon 7:03 PM AKDT (6/19) 3:15 AM AKDT (6/19)
Length of Visible Light 20h 08m
Length of Day
17h 52m
Waxing Gibbous, 82% of the Moon is Illuminated
Jun 19
Waxing Gibbous
Jun 23
Full
Jun 29
Last Quarter
Jul 7
New
Jul 15
First Quarter

Hourly Weather History & Observations

Time (AKDT) Temp. Windchill Dew Point Humidity Pressure Visibility Wind Dir Wind Speed Gust Speed Precip Events Conditions
12:16 AM 44.6 °F 43.1 °F 39.2 °F 81% 29.77 in 10.0 mi SSW 3.5 mph - N/A   Clear
12:36 AM 44.6 °F 43.1 °F 39.2 °F 81% 29.77 in 10.0 mi SSE 3.5 mph - N/A   Clear
12:56 AM 44.6 °F - 39.2 °F 81% 29.77 in 10.0 mi Calm Calm - N/A   Clear
1:16 AM 44.6 °F - 39.2 °F 81% 29.77 in 10.0 mi Calm Calm - N/A   Clear
1:36 AM 44.6 °F - 39.2 °F 81% 29.76 in 10.0 mi Calm Calm - N/A   Clear
1:56 AM 44.6 °F 43.1 °F 39.2 °F 81% 29.77 in 10.0 mi NW 3.5 mph - N/A   Clear
2:16 AM 42.8 °F 39.3 °F 39.2 °F 87% 29.77 in 9.0 mi WNW 5.8 mph - N/A   Scattered Clouds
2:36 AM 46.4 °F 43.5 °F 42.8 °F 87% 29.77 in 10.0 mi WNW 5.8 mph - N/A   Scattered Clouds
2:56 AM 44.6 °F 42.2 °F 39.2 °F 81% 29.77 in 10.0 mi West 4.6 mph - N/A   Clear
3:16 AM 42.8 °F - 35.6 °F 76% 29.76 in 10.0 mi Calm Calm - N/A   Clear
3:36 AM 44.6 °F - 39.2 °F 81% 29.75 in 1.5 mi Calm Calm - N/A   Clear
3:56 AM 44.6 °F - 37.4 °F 76% 29.75 in 0.5 mi Calm Calm - N/A   Mostly Cloudy
4:16 AM 42.8 °F - 37.4 °F 81% 29.74 in 0.5 mi Calm Calm - N/A   Overcast
4:36 AM 44.6 °F 41.4 °F 39.2 °F 81% 29.74 in 2.5 mi North 5.8 mph - N/A   Scattered Clouds
4:56 AM 41.0 °F 37.1 °F 35.6 °F 81% 29.74 in 0.5 mi North 5.8 mph - N/A   Mostly Cloudy
5:16 AM 42.8 °F - 35.6 °F 76% 29.75 in 0.5 mi Calm Calm - N/A   Overcast
5:36 AM 42.8 °F 39.3 °F 37.4 °F 81% 29.75 in 0.2 mi NNE 5.8 mph - N/A   Overcast
5:56 AM 41.0 °F 36.4 °F 35.6 °F 81% 29.75 in 0.2 mi NNE 6.9 mph - N/A   Overcast
6:16 AM 39.2 °F 35.9 °F 35.6 °F 87% 29.75 in 0.2 mi East 4.6 mph - N/A   Overcast
6:36 AM 41.0 °F - 37.4 °F 87% 29.75 in 0.2 mi Calm Calm - N/A   Overcast
6:56 AM 44.6 °F 43.1 °F 39.2 °F 81% 29.75 in 1.0 mi NE 3.5 mph - N/A   Mostly Cloudy
7:16 AM 46.4 °F - 39.2 °F 76% 29.75 in 10.0 mi Calm Calm - N/A   Mostly Cloudy
7:36 AM 44.6 °F 43.1 °F 39.2 °F 81% 29.75 in 10.0 mi NE 3.5 mph - N/A   Scattered Clouds
7:56 AM 44.6 °F 43.1 °F 39.2 °F 81% 29.75 in 10.0 mi ENE 3.5 mph - N/A   Scattered Clouds
8:16 AM 51.8 °F - 41.0 °F 67% 29.74 in 10.0 mi SE 13.8 mph 17.3 mph N/A   Partly Cloudy
8:36 AM 53.6 °F - 39.2 °F 58% 29.75 in 10.0 mi ENE 8.1 mph - N/A   Clear
8:56 AM 53.6 °F - 42.8 °F 67% 29.75 in 10.0 mi East 9.2 mph 18.4 mph N/A   Clear
9:16 AM 55.4 °F - 42.8 °F 63% 29.75 in 10.0 mi SE 10.4 mph 16.1 mph N/A   Clear
9:36 AM 55.4 °F - 41.0 °F 58% 29.76 in 10.0 mi SE 13.8 mph 21.9 mph N/A   Clear
9:56 AM 57.2 °F - 41.0 °F 55% 29.75 in 10.0 mi SSE 24.2 mph 29.9 mph N/A   Clear
10:16 AM 57.2 °F - 41.0 °F 55% 29.75 in 10.0 mi SSE 27.6 mph 35.7 mph N/A   Clear
10:36 AM 57.2 °F - 42.8 °F 59% 29.75 in 10.0 mi SSE 26.5 mph 32.2 mph N/A   Clear
10:56 AM 59.0 °F - 41.0 °F 51% 29.75 in 10.0 mi SSE 28.8 mph 33.4 mph N/A   Clear
11:16 AM - - - N/A% 29.74 in 10.0 mi SSE 28.8 mph 38.0 mph N/A   Clear
11:36 AM 59.0 °F - 41.0 °F 51% 29.76 in 10.0 mi SSE 25.3 mph 33.4 mph N/A   Clear
11:56 AM 59.0 °F - 39.2 °F 48% 29.76 in 10.0 mi SSE 24.2 mph 33.4 mph N/A   Clear
12:16 PM 60.8 °F - 41.0 °F 48% 29.76 in 10.0 mi SSE 19.6 mph 26.5 mph N/A   Partly Cloudy
12:36 PM 60.8 °F - 39.2 °F 45% 29.76 in 10.0 mi SE 23.0 mph 31.1 mph N/A   Partly Cloudy
12:56 PM 60.8 °F - 39.2 °F 45% 29.76 in 10.0 mi SSE 24.2 mph 29.9 mph N/A   Mostly Cloudy
1:16 PM 62.6 °F - 41.0 °F 45% 29.76 in 10.0 mi SSE 24.2 mph 32.2 mph N/A   Mostly Cloudy
1:36 PM 62.6 °F - 39.2 °F 42% 29.75 in 10.0 mi SSE 24.2 mph 32.2 mph N/A   Partly Cloudy
1:56 PM 62.6 °F - 41.0 °F 45% 29.75 in 10.0 mi SE 24.2 mph 32.2 mph N/A   Clear
2:16 PM 60.8 °F - 39.2 °F 45% 29.76 in 10.0 mi SE 21.9 mph 29.9 mph N/A   Clear
2:36 PM 60.8 °F - 39.2 °F 45% 29.75 in 10.0 mi SE 18.4 mph 25.3 mph N/A   Clear
2:56 PM 59.0 °F - 39.2 °F 48% 29.75 in 10.0 mi SE 19.6 mph 26.5 mph N/A   Clear
3:16 PM 60.8 °F - 39.2 °F 45% 29.75 in 10.0 mi SE 23.0 mph 31.1 mph N/A   Clear
3:36 PM 62.6 °F - 41.0 °F 45% 29.74 in 10.0 mi SSE 21.9 mph 27.6 mph N/A   Clear
3:56 PM 60.8 °F - 41.0 °F 48% 29.75 in 10.0 mi SSE 21.9 mph 26.5 mph N/A   Clear
4:16 PM 59.0 °F - 41.0 °F 51% 29.74 in 10.0 mi SSE 23.0 mph 27.6 mph N/A   Clear
4:36 PM 59.0 °F - 41.0 °F 51% 29.75 in 10.0 mi SSE 19.6 mph 25.3 mph N/A   Clear
4:56 PM 60.8 °F - 41.0 °F 48% 29.75 in 10.0 mi SE 18.4 mph - N/A   Clear
5:16 PM 60.8 °F - 41.0 °F 48% 29.74 in 10.0 mi SE 21.9 mph 25.3 mph N/A   Clear
5:36 PM 62.6 °F - 41.0 °F 45% 29.74 in 10.0 mi SE 23.0 mph 27.6 mph N/A   Clear
5:56 PM 60.8 °F - 42.8 °F 52% 29.74 in 10.0 mi SE 19.6 mph 27.6 mph N/A   Partly Cloudy
6:16 PM 60.8 °F - 41.0 °F 48% 29.73 in 10.0 mi SE 20.7 mph 25.3 mph N/A   Scattered Clouds
6:36 PM 60.8 °F - 41.0 °F 48% 29.73 in 10.0 mi SE 19.6 mph 26.5 mph N/A   Clear
6:56 PM 60.8 °F - 41.0 °F 48% 29.74 in 10.0 mi SE 21.9 mph 25.3 mph N/A   Scattered Clouds
7:16 PM 59.0 °F - 41.0 °F 51% 29.74 in 10.0 mi SE 19.6 mph 24.2 mph N/A   Mostly Cloudy
7:36 PM 57.2 °F - 41.0 °F 55% 29.74 in 10.0 mi SE 21.9 mph 27.6 mph N/A   Mostly Cloudy
7:56 PM 57.2 °F - 41.0 °F 55% 29.74 in 10.0 mi SE 19.6 mph 24.2 mph N/A   Overcast
8:16 PM 55.4 °F - 41.0 °F 58% 29.75 in 10.0 mi SE 19.6 mph - N/A   Overcast
8:36 PM 55.4 °F - 41.0 °F 58% 29.75 in 10.0 mi SE 18.4 mph 24.2 mph N/A   Overcast
8:56 PM 53.6 °F - 41.0 °F 62% 29.75 in 10.0 mi SE 15.0 mph - N/A   Overcast
9:16 PM 53.6 °F - 41.0 °F 62% 29.74 in 10.0 mi SSE 16.1 mph - N/A   Overcast
9:36 PM 53.6 °F - 39.2 °F 58% 29.75 in 10.0 mi SSE 13.8 mph - N/A   Overcast
9:56 PM 51.8 °F - 41.0 °F 67% 29.74 in 10.0 mi SSE 18.4 mph - N/A   Overcast
10:16 PM 51.8 °F - 41.0 °F 67% 29.74 in 10.0 mi SSE 18.4 mph 21.9 mph N/A   Overcast
10:36 PM 50.0 °F - 41.0 °F 71% 29.75 in 10.0 mi South 16.1 mph - N/A   Overcast
10:56 PM 50.0 °F - 41.0 °F 71% 29.75 in 10.0 mi South 12.7 mph 18.4 mph N/A   Overcast
11:16 PM 50.0 °F - 39.2 °F 66% 29.75 in 10.0 mi SSE 16.1 mph 19.6 mph N/A   Overcast
11:36 PM 48.2 °F - 39.2 °F 71% 29.76 in 10.0 mi SSE 12.7 mph - N/A   Overcast
11:56 PM 48.2 °F - 41.0 °F 76% 29.76 in 10.0 mi SSE 13.8 mph - N/A   Overcast